BEL101 EDDH-LKPR

Flight info

Callsign BEL101
Flight time N/A
Altitude 35000
Route RAMAR6G/33 RAMAR Z998 OSKAN M748 HDO DCT GOLOP
Aircraft A333/H-SDE3GHIJ2J3J5M1RVWXY/LB2D1

Departure

Time 2026-04-22 18:31
Airport Hamburg Helmut Schmidt Airport (EDDH)

Arrival

Time N/A
Airport Václav Havel Airport Prague (LKPR)
Time Latitude Longitude Altitude Speed Heading
2026-04-22 18:02 53.62944 10.00269 66 ft 0 kts 123°
2026-04-22 18:22 53.62948 10.00260 66 ft 1 kts 123°
2026-04-22 18:22 53.62955 10.00242 66 ft 2 kts 129°
2026-04-22 18:23 53.62965 10.00225 66 ft 2 kts 149°
2026-04-22 18:23 53.62977 10.00216 66 ft 2 kts 164°
2026-04-22 18:23 53.62989 10.00211 66 ft 2 kts 178°
2026-04-22 18:24 53.63012 10.00218 66 ft 1 kts 205°
2026-04-22 18:24 53.63014 10.00219 66 ft 0 kts 205°
2026-04-22 18:26 53.63011 10.00217 66 ft 1 kts 205°
2026-04-22 18:26 53.62997 10.00205 66 ft 4 kts 205°
2026-04-22 18:26 53.62969 10.00183 66 ft 6 kts 205°
2026-04-22 18:27 53.62939 10.00157 66 ft 4 kts 210°
2026-04-22 18:27 53.62913 10.00125 66 ft 5 kts 224°
2026-04-22 18:27 53.62904 10.00103 66 ft 2 kts 232°
2026-04-22 18:27 53.62896 10.00087 66 ft 2 kts 232°
2026-04-22 18:28 53.62878 10.00048 66 ft 6 kts 233°
2026-04-22 18:28 53.62856 9.99995 66 ft 0 kts 239°
2026-04-22 18:29 53.62855 9.99991 66 ft 1 kts 239°
2026-04-22 18:29 53.62839 9.99947 66 ft 6 kts 239°
2026-04-22 18:29 53.62815 9.99861 66 ft 10 kts 255°
2026-04-22 18:30 53.62844 9.99765 66 ft 7 kts 332°
2026-04-22 18:30 53.62873 9.99739 66 ft 0 kts 332°
2026-04-22 18:30 53.62879 9.99734 66 ft 6 kts 332°
2026-04-22 18:31 53.63024 9.99609 66 ft 55 kts 333°
2026-04-22 18:31 53.63580 9.99128 67 ft 126 kts 333°
2026-04-22 18:31 53.64470 9.98364 271 ft 163 kts 331°
2026-04-22 18:31 53.65432 9.97556 988 ft 157 kts 332°
2026-04-22 18:32 53.66362 9.96768 1648 ft 154 kts 333°
2026-04-22 18:32 53.67288 9.95966 2140 ft 161 kts 333°
2026-04-22 18:32 53.68280 9.95129 2582 ft 171 kts 334°
2026-04-22 18:32 53.69329 9.94276 3042 ft 179 kts 341°
2026-04-22 18:33 53.70467 9.94279 3377 ft 193 kts 17°
2026-04-22 18:33 53.71659 9.95311 3782 ft 205 kts 18°
2026-04-22 18:33 53.72945 9.95788 4219 ft 214 kts 16°
2026-04-22 18:33 53.74179 9.97136 4746 ft 227 kts 47°
2026-04-22 18:34 53.74962 9.99578 5074 ft 252 kts 64°
2026-04-22 18:34 53.75722 10.02343 4960 ft 268 kts 61°
2026-04-22 18:34 53.76534 10.05181 5043 ft 281 kts 61°
2026-04-22 18:34 53.77214 10.07547 5774 ft 285 kts 61°
2026-04-22 18:35 53.77940 10.10075 6878 ft 279 kts 60°
2026-04-22 18:35 53.78641 10.12512 7907 ft 271 kts 60°
2026-04-22 18:35 53.79424 10.15232 9039 ft 269 kts 61°
2026-04-22 18:35 53.80222 10.18007 9904 ft 273 kts 61°
2026-04-22 18:36 53.80960 10.20580 10578 ft 280 kts 62°
2026-04-22 18:36 53.81821 10.23583 11034 ft 302 kts 62°
2026-04-22 18:36 53.82755 10.26843 11138 ft 332 kts 62°
2026-04-22 18:36 53.83777 10.30428 11217 ft 358 kts 62°
2026-04-22 18:37 53.84544 10.34398 10852 ft 354 kts 79°
2026-04-22 18:37 53.84479 10.38072 10759 ft 342 kts 98°
2026-04-22 18:37 53.84080 10.40593 10766 ft 328 kts 102°
2026-04-22 18:37 53.83388 10.45471 10892 ft 320 kts 99°
2026-04-22 18:38 53.82904 10.49023 10908 ft 321 kts 99°
2026-04-22 18:38 53.82402 10.52697 10893 ft 320 kts 99°
2026-04-22 18:38 53.81877 10.56316 10926 ft 322 kts 103°
2026-04-22 18:39 53.79413 10.62373 11353 ft 332 kts 135°
2026-04-22 18:39 53.77703 10.64943 11345 ft 332 kts 135°
2026-04-22 18:39 53.76023 10.67458 11301 ft 331 kts 135°
2026-04-22 18:39 53.74334 10.69981 11301 ft 330 kts 136°
2026-04-22 18:40 53.72630 10.72520 11300 ft 332 kts 136°
2026-04-22 18:40 53.70914 10.75077 11360 ft 346 kts 136°
2026-04-22 18:40 53.69180 10.77651 11323 ft 333 kts 136°
2026-04-22 18:40 53.67472 10.80194 11331 ft 352 kts 136°
2026-04-22 18:41 53.65700 10.82817 11280 ft 339 kts 136°
2026-04-22 18:41 53.63985 10.85357 11353 ft 341 kts 136°
2026-04-22 18:41 53.62141 10.88095 11407 ft 371 kts 136°
2026-04-22 18:41 53.60223 10.90928 11740 ft 389 kts 136°
2026-04-22 18:42 53.58322 10.93724 13383 ft 367 kts 136°
2026-04-22 18:42 53.56677 10.96141 15243 ft 335 kts 135°
2026-04-22 18:42 53.55100 10.98469 16490 ft 320 kts 135°
2026-04-22 18:42 53.53558 11.00744 17255 ft 319 kts 135°
2026-04-22 18:43 53.51986 11.03057 17944 ft 320 kts 136°
2026-04-22 18:43 53.50438 11.05335 18695 ft 319 kts 135°
2026-04-22 18:43 53.48837 11.07680 19478 ft 317 kts 135°
2026-04-22 18:43 53.47344 11.09870 20231 ft 314 kts 135°
2026-04-22 18:44 53.45801 11.12128 21019 ft 310 kts 135°
2026-04-22 18:44 53.44382 11.14204 21689 ft 308 kts 136°
2026-04-22 18:44 53.42909 11.16359 22378 ft 305 kts 135°
2026-04-22 18:44 53.41631 11.18223 22953 ft 302 kts 135°
2026-04-22 18:45 53.40183 11.20337 23595 ft 300 kts 135°
2026-04-22 18:45 53.38808 11.22340 24173 ft 298 kts 135°
2026-04-22 18:45 53.37450 11.24317 24735 ft 296 kts 135°
2026-04-22 18:45 53.36121 11.26245 25352 ft 292 kts 135°
2026-04-22 18:46 53.34901 11.28020 25903 ft 289 kts 134°
2026-04-22 18:46 53.33698 11.29765 26416 ft 286 kts 134°
2026-04-22 18:46 53.32417 11.31628 26847 ft 287 kts 134°
2026-04-22 18:46 53.31152 11.33463 27261 ft 288 kts 133°
2026-04-22 18:47 53.29856 11.35344 27606 ft 292 kts 133°
2026-04-22 18:47 53.28643 11.37102 27954 ft 295 kts 133°
2026-04-22 18:47 53.27313 11.39024 28365 ft 296 kts 133°
2026-04-22 18:47 53.25931 11.41021 28797 ft 298 kts 133°
2026-04-22 18:48 53.24688 11.42817 29169 ft 300 kts 133°
2026-04-22 18:48 53.23313 11.44805 29574 ft 302 kts 132°
2026-04-22 18:48 53.21946 11.46776 29954 ft 304 kts 133°
2026-04-22 18:48 53.20573 11.48754 30361 ft 305 kts 132°
2026-04-22 18:49 53.19164 11.50781 30747 ft 308 kts 132°
2026-04-22 18:49 53.17759 11.52803 31102 ft 310 kts 132°
2026-04-22 18:49 53.16360 11.54812 31504 ft 311 kts 132°
2026-04-22 18:49 53.14937 11.56856 31858 ft 312 kts 131°
2026-04-22 18:50 53.13552 11.58960 32212 ft 313 kts 130°
2026-04-22 18:50 53.12170 11.61079 32579 ft 314 kts 129°
2026-04-22 18:50 53.10769 11.63218 32839 ft 318 kts 129°
2026-04-22 18:50 53.09390 11.65328 33167 ft 320 kts 130°
2026-04-22 18:51 53.07974 11.67487 33515 ft 321 kts 129°
2026-04-22 18:51 53.06495 11.69740 33927 ft 321 kts 130°
2026-04-22 18:51 53.05019 11.71985 34275 ft 323 kts 129°
2026-04-22 18:51 53.03575 11.74184 34676 ft 322 kts 129°
2026-04-22 18:52 53.02167 11.76324 34944 ft 324 kts 129°
2026-04-22 18:52 53.00728 11.78517 35066 ft 330 kts 129°
2026-04-22 18:52 52.99275 11.80726 35235 ft 334 kts 128°
2026-04-22 18:52 52.98006 11.83122 35320 ft 323 kts 120°
2026-04-22 18:53 52.95726 11.88269 35310 ft 327 kts 120°
2026-04-22 18:53 52.93353 11.93489 35320 ft 341 kts 121°
2026-04-22 18:54 52.90955 11.98734 35332 ft 359 kts 121°
2026-04-22 18:54 52.88308 12.04502 35320 ft 378 kts 121°
2026-04-22 18:55 52.85504 12.10603 35312 ft 394 kts 121°
2026-04-22 18:55 52.82629 12.16833 35291 ft 384 kts 121°
2026-04-22 18:56 52.79840 12.22882 35296 ft 382 kts 121°
2026-04-22 18:56 52.77094 12.28822 35292 ft 383 kts 121°
2026-04-22 18:57 52.74823 12.33721 35295 ft 384 kts 121°
2026-04-22 18:57 52.72303 12.39145 35301 ft 384 kts 121°
2026-04-22 18:58 52.69209 12.44573 35278 ft 400 kts 139°
2026-04-22 18:58 52.65086 12.48417 35301 ft 404 kts 141°
2026-04-22 18:59 52.61018 12.52381 35295 ft 402 kts 141°
2026-04-22 18:59 52.56939 12.56392 35293 ft 404 kts 141°
2026-04-22 19:00 52.52894 12.60368 35295 ft 406 kts 141°
2026-04-22 19:00 52.48770 12.64408 35291 ft 406 kts 140°
2026-04-22 19:01 52.44671 12.68419 35300 ft 406 kts 141°
2026-04-22 19:01 52.40531 12.72462 35301 ft 405 kts 141°
2026-04-22 19:02 52.36422 12.76468 35302 ft 409 kts 141°
2026-04-22 19:02 52.32149 12.80622 35297 ft 406 kts 141°
2026-04-22 19:03 52.27655 12.84981 35303 ft 408 kts 141°
2026-04-22 19:03 52.23782 12.89003 35298 ft 405 kts 136°
2026-04-22 19:04 52.19982 12.93452 35293 ft 404 kts 137°
2026-04-22 19:04 52.16282 12.97768 35287 ft 404 kts 137°
2026-04-22 19:05 52.12496 13.02177 35291 ft 404 kts 137°
2026-04-22 19:05 52.08666 13.06626 35294 ft 403 kts 137°
2026-04-22 19:06 52.04865 13.11035 35298 ft 407 kts 136°
2026-04-22 19:07 51.99170 13.17618 35302 ft 404 kts 136°
2026-04-22 19:07 51.95215 13.22177 35296 ft 403 kts 137°
2026-04-22 19:08 51.91195 13.26805 35297 ft 406 kts 137°
2026-04-22 19:08 51.87219 13.31365 35288 ft 406 kts 137°
2026-04-22 19:09 51.83284 13.35869 35286 ft 406 kts 137°
2026-04-22 19:09 51.80054 13.39556 35288 ft 405 kts 136°
2026-04-22 19:10 51.76132 13.44024 35285 ft 405 kts 136°
2026-04-22 19:10 51.71762 13.48995 35286 ft 406 kts 137°
2026-04-22 19:11 51.67994 13.53275 35292 ft 406 kts 136°
2026-04-22 19:11 51.64055 13.57739 35275 ft 404 kts 136°
2026-04-22 19:12 51.60271 13.62013 35140 ft 385 kts 136°
2026-04-22 19:12 51.58417 13.64106 34987 ft 378 kts 136°
2026-04-22 19:12 51.56661 13.66090 34749 ft 375 kts 136°
2026-04-22 19:12 51.55003 13.67962 34429 ft 373 kts 136°
2026-04-22 19:13 51.53200 13.69996 34069 ft 372 kts 136°
2026-04-22 19:13 51.51361 13.72067 33736 ft 370 kts 137°
2026-04-22 19:13 51.49547 13.74107 33367 ft 369 kts 137°
2026-04-22 19:13 51.47790 13.76077 33060 ft 367 kts 137°
2026-04-22 19:14 51.46011 13.78074 32792 ft 363 kts 137°
2026-04-22 19:14 51.44283 13.80008 32472 ft 361 kts 137°
2026-04-22 19:14 51.42651 13.81840 32192 ft 359 kts 137°
2026-04-22 19:14 51.40963 13.83727 31897 ft 357 kts 137°
2026-04-22 19:15 51.39846 13.84974 31707 ft 356 kts 137°
2026-04-22 19:15 51.37590 13.87494 31296 ft 354 kts 137°
2026-04-22 19:15 51.35872 13.89412 31031 ft 351 kts 138°
2026-04-22 19:15 51.34174 13.91304 30764 ft 348 kts 138°
2026-04-22 19:16 51.32486 13.93184 30372 ft 348 kts 138°
2026-04-22 19:16 51.30801 13.95059 30083 ft 345 kts 138°
2026-04-22 19:16 51.29163 13.96879 29785 ft 343 kts 138°
2026-04-22 19:16 51.27512 13.98711 29494 ft 341 kts 138°
2026-04-22 19:17 51.25875 14.00527 29177 ft 340 kts 138°
2026-04-22 19:17 51.24247 14.02330 28888 ft 337 kts 138°
2026-04-22 19:17 51.22633 14.04124 28629 ft 334 kts 138°
2026-04-22 19:17 51.21008 14.05918 28342 ft 333 kts 138°
2026-04-22 19:18 51.19413 14.07682 28012 ft 332 kts 138°
2026-04-22 19:18 51.17832 14.09431 27728 ft 330 kts 138°
2026-04-22 19:18 51.16290 14.11133 27462 ft 328 kts 139°
2026-04-22 19:18 51.14730 14.12854 27143 ft 327 kts 138°
2026-04-22 19:19 51.13210 14.14528 26880 ft 325 kts 139°
2026-04-22 19:19 51.11591 14.16309 26582 ft 323 kts 139°
2026-04-22 19:19 51.09894 14.18178 26276 ft 322 kts 139°
2026-04-22 19:19 51.08215 14.20020 25995 ft 319 kts 138°
2026-04-22 19:20 51.06777 14.21603 25676 ft 320 kts 139°
2026-04-22 19:20 51.05306 14.23219 25358 ft 320 kts 139°
2026-04-22 19:20 51.03701 14.24977 25003 ft 320 kts 139°
2026-04-22 19:20 51.01951 14.26896 24576 ft 321 kts 139°
2026-04-22 19:21 51.00342 14.28659 24146 ft 324 kts 139°
2026-04-22 19:21 50.98894 14.30244 23740 ft 326 kts 139°
2026-04-22 19:21 50.97363 14.31914 23394 ft 326 kts 139°
2026-04-22 19:21 50.95682 14.33747 22985 ft 327 kts 139°
2026-04-22 19:22 50.93852 14.35737 22526 ft 329 kts 141°
2026-04-22 19:22 50.92119 14.37093 22063 ft 340 kts 156°
2026-04-22 19:22 50.90096 14.37896 21379 ft 352 kts 162°
2026-04-22 19:22 50.87958 14.38692 20569 ft 363 kts 161°
2026-04-22 19:23 50.85564 14.39590 19749 ft 371 kts 162°
2026-04-22 19:23 50.83144 14.40492 19185 ft 372 kts 162°
2026-04-22 19:23 50.80865 14.41304 18770 ft 369 kts 163°
2026-04-22 19:23 50.78632 14.42068 18344 ft 367 kts 163°
2026-04-22 19:24 50.76576 14.42770 17972 ft 364 kts 163°
2026-04-22 19:24 50.74310 14.43542 17534 ft 363 kts 163°
2026-04-22 19:24 50.71919 14.44356 17204 ft 366 kts 163°
2026-04-22 19:24 50.69934 14.45027 17181 ft 362 kts 163°
2026-04-22 19:25 50.67780 14.45755 17247 ft 362 kts 163°
2026-04-22 19:25 50.65623 14.46484 17258 ft 363 kts 163°
2026-04-22 19:25 50.63448 14.47221 17282 ft 362 kts 163°
2026-04-22 19:25 50.61265 14.47956 17267 ft 362 kts 163°
2026-04-22 19:26 50.59057 14.48701 17203 ft 355 kts 163°
2026-04-22 19:26 50.56867 14.49439 16768 ft 355 kts 163°
2026-04-22 19:26 50.54528 14.50230 16229 ft 356 kts 163°
2026-04-22 19:26 50.52383 14.50951 15791 ft 356 kts 163°
2026-04-22 19:27 50.50228 14.51675 15441 ft 353 kts 163°
2026-04-22 19:27 50.47871 14.52464 15335 ft 340 kts 163°
2026-04-22 19:27 50.45635 14.53213 15201 ft 331 kts 163°
2026-04-22 19:27 50.43450 14.53947 14875 ft 328 kts 163°
2026-04-22 19:28 50.41407 14.54633 14521 ft 327 kts 163°
2026-04-22 19:28 50.39232 14.55359 14140 ft 327 kts 163°
2026-04-22 19:28 50.37345 14.55991 13830 ft 326 kts 164°
2026-04-22 19:28 50.35501 14.56606 13540 ft 325 kts 164°
2026-04-22 19:29 50.33483 14.57278 13233 ft 323 kts 164°
2026-04-22 19:29 50.31626 14.57898 12954 ft 322 kts 164°
2026-04-22 19:29 50.29733 14.58526 12656 ft 321 kts 164°
2026-04-22 19:29 50.27690 14.59208 12332 ft 320 kts 164°
2026-04-22 19:30 50.26342 14.59655 12131 ft 319 kts 164°
2026-04-22 19:30 50.23661 14.60547 11738 ft 317 kts 165°
2026-04-22 19:30 50.21595 14.61232 11433 ft 315 kts 165°
2026-04-22 19:30 50.19614 14.61889 11128 ft 314 kts 165°
2026-04-22 19:31 50.17887 14.62461 10890 ft 312 kts 165°
2026-04-22 19:31 50.16012 14.63082 10616 ft 311 kts 165°
2026-04-22 19:31 50.14062 14.63725 10329 ft 310 kts 165°
2026-04-22 19:31 50.12107 14.64372 10035 ft 308 kts 165°
2026-04-22 19:32 50.10112 14.65032 9750 ft 307 kts 166°
2026-04-22 19:32 50.08192 14.65664 9477 ft 305 kts 166°
2026-04-22 19:32 50.06169 14.66332 9205 ft 304 kts 166°
2026-04-22 19:32 50.04164 14.66992 8942 ft 302 kts 166°
2026-04-22 19:33 50.02175 14.67647 8767 ft 305 kts 166°
2026-04-22 19:33 50.00209 14.68293 8579 ft 302 kts 166°
2026-04-22 19:33 49.98248 14.68520 8316 ft 301 kts 187°
2026-04-22 19:33 49.96401 14.67571 8091 ft 298 kts 212°